Weather Roundup
Issued by NWS Corpus Christi, TX

Home | Current Version | Previous Version | Text Only | Print | Product List | Glossary On
Versions: 1 2 3 4 5 6 7 8 9 10 11 12 13 14 15 16 17 18 19 20 21 22 23 24 25 26 27 28 29 30 31 32 33 34 35 36 37 38 39 40 41 42 43 44 45 46 47 48 49 50
000
ASUS44 KCRP 260910
HRRCRP

SOUTH TEXAS REGIONAL WEATHER ROUNDUP
NATIONAL WEATHER SERVICE CORPUS CHRISTI TX
400 AM CDT SUN OCT 26 2014


TXZ229>244-261000-
...CORPUS CHRISTI AREA OBSERVATIONS...

CITY           SKY/WX    TMP DP  RH WIND       PRES   REMARKS
CORPUS CHRISTI CLEAR     64  61  90 CALM      30.05F
NAS CORPUS CHR CLEAR     68  67  96 SW5       30.04F
ROCKPORT       CLEAR     64  62  93 S5        30.04F
KINGSVILLE NAS CLEAR     60  59  96 CALM      30.05F
ALICE          CLEAR     63  60  90 W3        30.05F
FALFURRIAS     CLEAR     58  55  91 CALM      30.05F
$$

...VICTORIA AREA OBSERVATIONS...

CITY           SKY/WX    TMP DP  RH WIND       PRES   REMARKS
VICTORIA       FOG       58  56  93 CALM      30.06S VSB 1/4
BEEVILLE       FAIR      64  63  97 CALM      30.05F
PLEASANTON     CLEAR     60  59  95 CALM      30.06F
SAN ANTONIO    CLEAR     65  61  87 CALM      30.07F
$$

...LAREDO AREA OBSERVATIONS...

CITY           SKY/WX    TMP DP  RH WIND       PRES   REMARKS
LAREDO         CLEAR     67  61  81 SE7       30.07F
COTULLA        CLEAR     65  59  81 S5        30.05F
DEL RIO        CLEAR     66  58  75 SE8       30.03F
MCALLEN        CLEAR     66  64  93 SE3       30.05F
HEBBRONVILLE   CLEAR     60  58  94 S5        30.06F
$$

...OTHER TEXAS OBSERVATIONS...

CITY           SKY/WX    TMP DP  RH WIND       PRES   REMARKS
BROWNSVILLE    CLEAR     65  64  97 CALM      30.05F
HOUSTON        CLEAR     58  57  97 CALM      30.05F
COL. STATION   CLEAR     62  58  86 S3        30.06S
AUSTIN         CLEAR     57  56  96 CALM      30.05F
WACO           CLEAR     65  59  81 S9        30.03F
FORT WORTH     CLEAR     68  59  73 SW9       30.00F
WICHITA FALLS  CLEAR     63  56  78 S9        29.96F
LUBBOCK        CLEAR     63  51  65 SW13      30.03F
EL PASO        CLEAR     63  47  55 CALM      30.09F
$$

...MARINE OBSERVATIONS...

STATION/POSITION TIME  SKY/WX   TEMP    WIND        PRES    VSBY  WAVE   SWELL
                                AIR SEA DIR/SP/G                  HT/PER HT/PER
                 (UTC)          (F)     (DEG/KT/KT) (MB)    (MI)  (FT/S) (FT/S)
PORT ARANSAS     0900            76 78  150/  8/ 10 1018.0F
BUOY 90 E PORT A 0900            76 81  140/  6/  8 1018.1F         2/ 7   2/ 7
BUOY 45 SE BAFFI 0900            77 80  160/  6/  8 1017.0F         2/ 8   2/ 8
BUOY 200 E PT IS 0900            76 81   60/  4/  4 1017.4F         2/ 8   2/ 8
BUOY 15 E GALVES 0900            74 77  200/  8/ 10 1017.3F         1/ 7   2/ 7
$$



USA.gov is the U.S. government's official web portal to all federal, state and local government web resources and services.